N5CNB Weather Reports


time (UTC)temp
C
wind
direction
speed
KPH
gust
KPH
rain 1hr
cm
rain 24hr
cm
rain mn
cm
humidity
%
barometer
mb
20260502123021 10 13 1.6 4.8 0.00 5.18 0.00 91 1020.3
20260502121527 10 356 0.0 1.6 0.00 5.49 0.00 91 1020.0
20260502114515 9 36 0.0 0.0 0.00 7.01 0.00 91 1019.7
20260502113022 9 36 0.0 0.0 0.00 7.47 0.00 91 1019.5
20260502111525 9 3 0.0 6.4 0.00 7.75 0.00 91 1019.3
20260502110025 9 9 1.6 8.0 0.00 7.98 0.00 91 1018.8
20260502104516 10 358 0.0 6.4 0.00 8.48 0.00 91 1018.6
20260502101520 10 4 1.6 6.4 0.00 9.70 0.00 91 1018.5
20260502091518 10 10 3.2 11.3 0.00 10.26 0.00 90 1017.6
20260502071525 11 3 3.2 14.5 0.00 12.75 0.00 90 1016.9
20260502070022 10 350 1.6 9.7 0.00 12.80 0.00 90 1017.0
20260502064529 10 40 0.0 8.0 0.00 12.90 0.00 90 1017.0
20260502063010 11 355 3.2 12.9 0.00 12.90 0.00 89 1017.2
20260502061511 11 10 4.8 17.7 0.00 12.90 0.00 89 1017.3
20260502060016 11 356 6.4 20.9 0.00 12.90 0.00 89 1017.2
20260502054519 11 340 8.0 20.9 0.00 12.90 0.00 89 1017.3
20260502053004 12 39 1.6 14.5 0.00 12.90 0.00 89 1017.2
20260502051507 12 352 8.0 22.5 0.00 12.90 0.00 89 1017.2
20260502050011 12 10 8.0 25.7 0.00 12.90 0.00 89 1017.0
20260502044519 12 11 6.4 12.9 0.00 12.90 12.90 89 1016.9
20260502043022 12 350 4.8 17.7 0.00 12.90 12.90 89 1016.7
20260502041505 12 358 6.4 24.1 0.00 12.90 12.90 89 1016.7
20260502040016 12 64 8.0 25.7 0.00 12.90 12.90 90 1016.6
20260502034516 12 359 6.4 17.7 0.00 12.90 12.90 90 1016.5
20260502033021 12 34 6.4 19.3 0.00 12.90 12.90 90 1016.2
20260502031522 12 342 4.8 16.1 0.00 12.90 12.90 90 1016.0
20260502030007 12 16 9.7 25.7 0.00 12.90 12.90 90 1016.2
20260502024511 12 356 11.3 22.5 0.00 12.90 12.90 90 1016.1
20260502023017 12 48 11.3 30.6 0.00 12.90 12.90 91 1015.7
20260502021520 12 354 6.4 22.5 0.00 12.90 12.90 91 1015.4
20260502020024 12 356 14.5 24.1 0.00 12.90 12.90 91 1014.8
20260502014507 13 341 11.3 22.5 0.00 12.90 12.90 92 1014.2
20260502013014 13 6 8.0 19.3 0.05 12.90 12.90 92 1013.8
20260501233025 14 93 6.4 12.9 0.23 12.60 12.60 92 1013.6
20260501231515 14 12 3.2 12.9 0.15 12.55 12.55 92 1013.6
20260501230015 14 358 8.0 16.1 0.18 12.55 12.55 92 1012.3
20260501224521 14 65 6.4 20.9 0.30 12.50 12.50 92 1012.2
20260501221526 15 116 6.4 24.1 0.20 12.40 12.40 91 1010.0
20260501220010 15 13 9.7 25.7 0.18 12.37 12.37 91 1010.9
20260501214519 15 350 9.7 20.9 0.03 12.22 12.22 91 1010.9
20260501211507 15 92 12.9 25.7 0.05 12.19 12.19 91 1010.3
20260501210011 15 33 9.7 35.4 0.15 12.19 12.19 92 1010.8
20260501204517 15 11 12.9 22.5 0.18 12.19 12.19 92 1011.3
20260501203023 15 355 8.0 24.1 0.20 12.17 12.17 92 1011.2
20260501201522 15 345 11.3 24.1 0.23 12.14 12.14 92 1010.6
20260501200025 15 20 6.4 25.7 0.33 12.01 12.01 92 1011.1
20260501193031 16 353 4.8 14.5 0.53 11.96 11.96 93 1010.7
20260501191528 16 1 9.7 22.5 0.48 11.91 11.91 92 1010.6
20260501190045 16 51 6.4 14.5 0.28 11.71 11.71 92 1010.6
20260501184534 16 16 4.8 16.1 0.03 11.46 11.46 92 1010.6
20260501183019 16 65 9.7 16.1 0.00 11.43 11.43 92 1009.7
20260501181517 16 51 6.4 20.9 0.00 11.43 11.43 92 1009.8
20260501180019 16 60 4.8 14.5 0.08 11.43 11.43 92 1010.2
20260501174527 16 345 9.7 20.9 0.18 11.43 11.43 93 1009.8
20260501173026 15 42 17.7 24.1 0.25 11.43 11.43 93 1008.5
20260501171516 15 71 17.7 40.2 0.33 11.43 11.43 93 1009.5
20260501170017 15 51 9.7 19.3 0.30 11.33 11.33 93 1011.9
20260501164528 15 4 3.2 14.5 0.33 11.23 11.23 93 1013.0
20260501163025 15 316 4.8 19.3 0.33 11.18 11.18 93 1013.0
20260501161526 15 41 11.3 20.9 0.43 11.10 11.10 92 1012.8
20260501160016 15 142 3.2 19.3 0.66 11.05 11.05 93 1013.0
20260501154518 15 86 11.3 16.1 0.91 10.92 10.92 92 1012.8
20260501153022 15 9 4.8 16.1 0.99 10.85 10.85 92 1013.6
20260501151524 16 356 12.9 20.9 0.86 10.64 10.64 93 1013.0
20260501150034 16 56 9.7 25.7 0.58 10.39 10.39 93 1013.0
20260501144514 16 19 9.7 17.7 0.20 10.01 10.01 93 1012.9
20260501143025 16 350 9.7 17.7 0.18 9.86 9.86 93 1011.9
20260501141539 16 56 9.7 22.5 0.69 9.80 9.80 93 1011.5
20260501140030 15 123 14.5 24.1 0.91 9.80 9.80 93 1011.4
20260501134525 15 138 11.3 22.5 1.55 9.80 9.80 93 1012.2